Flag for Norway Weather past 2 weeks in Fetsund, Norway

Now
63 °F

Mild.


Feels Like: 63 °F
Forecast: 41 / 64 °F
Wind: 1 mph from East

Location: Oslo-Blindern

Current Time: Sep 16, 2014 at 4:37:32 PM

Latest Report: Sep 16, 2014 at 3:00 PM


Visibility: N/A

Pressure: 30.35 "Hg

Humidity: 62%

Dew point: 50 °F

Location of FetsundLocation

Historic Weather in Fetsund — Graph

°F

Fetsund temperature yesterday

Maximum temperature yesterday: 67 °F (at 3:00 PM)
Minimum temperature yesterday: 46 °F (at 7:00 AM)
Average temperature yesterday: 57 °F

Past Weeks' High & Low Weather Summary

 TemperatureHumidityPressure
High72 °F (Sep 3, 3:00 PM)98% (Sep 3, 5:00 AM)30.48 "Hg (Sep 3, 5:00 AM)
Low46 °F (Sep 15, 7:00 AM)42% (Sep 14, 3:00 PM)29.76 "Hg (Sep 9, 6:00 AM)
Average59 °F77%30.18 "Hg
* Reported Sep 1 3:00 PM — Sep 16 3:00 PM, Fetsund, Weather by CustomWeather, © 2014

Note: Actual official high and low records may vary slightly from our data, if they occured in-between our weather recording intervals... More about our weather records

Advertising

Fetsund weather history for previous 24 hours

 ConditionsComfort  
Time TempWeatherWind HumidityBarometerVisibility
3:00 PM
Sep 16
63 °FMild.1 mph62%30.35 "HgN/A
2:00 PM63 °FPartly sunny.2 mph63%30.36 "Hg6 mi
1:00 PM65 °FMild.2 mph60%30.37 "HgN/A
12:00 PM62 °FMild.2 mph66%30.38 "HgN/A
11:00 AM60 °FPartly sunny.1 mph73%30.40 "Hg25 mi
10:00 AM57 °FCool.No wind79%30.40 "HgN/A
9:00 AM56 °FCool.No wind80%30.40 "HgN/A
8:00 AM49 °FScattered clouds.No wind95%30.40 "Hg37 mi
7:00 AM49 °FCool.2 mph91%30.40 "HgN/A
6:00 AM50 °FCool.2 mph90%30.40 "HgN/A
5:00 AM50 °FClear.2 mph90%30.40 "Hg37 mi
4:00 AM51 °FCool.3 mph88%30.40 "HgN/A
3:00 AM51 °FCool.3 mph88%30.40 "HgN/A
2:00 AM51 °FPassing clouds.2 mph88%30.40 "Hg37 mi
1:00 AM52 °FCool.3 mph86%30.41 "HgN/A
12:00 AM51 °FCool.2 mph88%30.42 "HgN/A
11:00 PM
Sep 15
52 °FClear.2 mph85%30.41 "Hg37 mi
10:00 PM54 °FCool.2 mph82%30.40 "HgN/A
9:00 PM55 °FCool.2 mph79%30.40 "HgN/A
8:00 PM58 °FPassing clouds.2 mph72%30.38 "Hg37 mi
7:00 PM64 °FMild.2 mph52%30.37 "HgN/A
6:00 PM66 °FMild.3 mph48%30.38 "HgN/A
5:00 PM66 °FPassing clouds.3 mph51%30.39 "Hg37 mi
4:00 PM67 °FMild.2 mph49%30.40 "HgN/A
Weather by CustomWeather, © 2014

See weather overviewHow to use our weather pages